Printer-friendly version

IAU Minor Planet Center

Minor Planet Center

MPEC 2008-E111: 2008 EV84

The following Minor Planet Electronic Circular may be linked-to from your own Web pages, but must not otherwise be redistributed electronically.


Read MPEC 2008-E110 Read MPEC 2008-E112


M.P.E.C. 2008-E111                               Issued 2008 Mar. 14, 23:25 UT

     The Minor Planet Electronic Circulars contain information on unusual
         minor planets and routine data on comets.  They are published
   on behalf of Commission 20 of the International Astronomical Union by the
          Minor Planet Center, Smithsonian Astrophysical Observatory,
                          Cambridge, MA 02138, U.S.A.

             Prepared using the Tamkin Foundation Computer Network

                              MPC@CFA.HARVARD.EDU
          URL http://www.cfa.harvard.edu/iau/mpc.html  ISSN 1523-6714

                                   2008 EV84

Observations:
     K08E84V* C2008 03 11.21870 10 06 35.51 +13 04 15.5          19.5   EE111704
     K08E84V  C2008 03 11.22979 10 06 34.46 +12 58 56.3          20.0   EE111704
     K08E84V  C2008 03 11.24072 10 06 33.43 +12 53 40.3          19.9   EE111704
     K08E84V  C2008 03 11.25167 10 06 32.39 +12 48 22.0          20.0   EE111704
     K08E84V  C2008 03 11.26273 10 06 31.33 +12 43 00.1          20.2   EE111704
     K08E84V  C2008 03 12.20690 10 06 32.84 +04 02 30.1          19.5   EE111704
     K08E84V  C2008 03 12.21127 10 06 32.53 +03 59 45.0          19.4   EE111704
     K08E84V  C2008 03 12.21146 10 06 32.51 +03 59 38.3          19.3   EE111704
     K08E84V  C2008 03 12.21779 10 06 31.91 +03 55 42.4          20.3   EE111704
     K08E84V  C2008 03 12.22222 10 06 31.35 +03 52 57.3          19.8   EE111704
     K08E84V  C2008 03 12.22241 10 06 31.43 +03 52 49.5          19.5   EE111704
     K08E84V  C2008 03 12.22860 10 06 30.81 +03 48 58.4          19.8   EE111704
     K08E84V  C2008 03 12.23339 10 06 30.37 +03 45 58.0          19.9   EE111704
     K08E84V  C2008 03 12.23357 10 06 30.36 +03 45 50.9          19.5   EE111704
     K08E84V  C2008 03 12.23985 10 06 29.70 +03 41 57.4          19.9   EE111704
     K08E84V  C2008 03 12.24459 10 06 29.21 +03 38 58.9          19.7   EE111704
     K08E84V  C2008 03 12.24479 10 06 29.08 +03 38 55.1          20.5   EE111704
     K08E84V  C2008 03 12.25627 10 06 28.05 +03 31 39.1          19.5   EE111704

Observer details:
704 Lincoln Laboratory ETS, New Mexico.  Observers M. Bezpalko, D. Torres,
    R. Kracke, G. Spitz, J. Kistler.  Measurers J. Stuart, S. Scruggs.  1.0-m
    f/2.15 reflector + CCD.

Orbital elements:
2008 EV84                                                Earth MOID = 0.0256 AU
Epoch 2008 May 14.0 TT = JDT 2454600.5                  MPC
M  10.47472              (2000.0)            P               Q
n   0.24419722     Peri.  205.74530     -0.95893369     +0.28110992
a   2.5349860      Node   350.35001     -0.20539088     -0.77997560
e   0.6104839      Incl.   13.00686     -0.19560360     -0.55912009
P   4.04           H   25.4           G   0.15           U   8
Residuals in seconds of arc
080311 704  0.3+  0.2-    080312 704  0.0   0.2-    080312 704  0.4+  0.8-
080311 704  0.0   0.2+    080312 704  0.1-  0.2+    080312 704  0.6+  1.2-
080311 704  0.0   0.3+    080312 704  0.3+  0.3+    080312 704  0.1+  0.8+
080311 704  0.1-  0.2-    080312 704  1.6-  0.6+    080312 704  0.1-  0.4+
080311 704  0.4-  0.1+    080312 704  0.1-  0.1-    080312 704 (1.8-  4.1+)
080312 704 (1.8-  2.2+)   080312 704  0.2-  0.2+    080312 704  0.1+  0.1+

Ephemeris:
2008 EV84                a,e,i = 2.53, 0.61, 13                  q = 0.9874
Date    TT    R. A. (2000) Decl.     Delta      r     Elong.  Phase     V
2008 03 15    10 06.77   -33 22.2    0.0259   1.014   138.2    40.8    19.1
2008 03 16    10 07.14   -47 52.7    0.0272   1.011   126.1    52.7    19.5
2008 03 17    10 07.79   -60 22.7    0.0300   1.008   115.3    63.1    20.0
2008 03 18    10 08.94   -70 21.3    0.0339   1.006   106.7    71.4    20.6
2008 03 19    10 11.20   -78 03.9    0.0386   1.003   100.2    77.6    21.1
2008 03 20    10 16.97   -84 00.2    0.0439   1.001    95.3    82.2    21.5
2008 03 21    10 55.77   -88 36.4    0.0495   0.999    91.6    85.6    21.9
2008 03 22    21 35.38   -87 40.3    0.0554   0.997    88.8    88.0    22.2
2008 03 23    21 52.22   -84 43.5    0.0614   0.995    86.7    89.8    22.5
2008 03 24    21 56.45   -82 18.1    0.0676   0.993    85.1    91.0    22.8
2008 03 25    21 58.42   -80 16.9    0.0738   0.992    83.8    91.9    23.0

Gareth V. Williams           (C) Copyright 2008 MPC           M.P.E.C. 2008-E111

Read MPEC 2008-E110 Read MPEC 2008-E112


Our Web policy. Index to the CBAT/MPC/ICQ pages.


Valid HTML 4.01!